Location: Newark
(33.6333°S, 78.8500°W)
Time: 12:24:53
(UTC+00:00)

Vanguard 1 - All Passes

Search period start: 23 October 2019 00:00
Search period end: 02 November 2019 00:00
Orbit: 653 x 3830 km, 34.2° (Epoch: 22 October)

Date Brightness Start Highest point End Pass type
(mag) Time Alt. Az. Time Alt. Az. Time Alt. Az.
23 Oct - 06:48:19 10° N 07:05:38 27° NE 07:20:36 10° E visible
23 Oct - 09:08:36 10° NW 09:30:54 58° NNE 09:45:39 10° ESE visible
23 Oct - 11:35:36 10° WNW 11:55:52 87° N 12:06:47 10° E daylight
23 Oct - 14:04:37 10° W 14:19:13 88° N 14:26:44 10° ENE daylight
23 Oct - 16:31:29 10° W 16:39:52 38° NW 16:45:05 10° NNE daylight
24 Oct - 07:07:23 10° NNW 07:26:54 35° NE 07:43:11 10° E visible
24 Oct - 09:29:36 10° NW 09:52:22 67° NNE 10:06:55 10° ESE visible
24 Oct - 11:57:35 10° W 12:17:21 89° S 12:27:51 10° E daylight
24 Oct - 14:26:29 10° W 14:40:25 80° NNW 14:47:38 10° ENE daylight
24 Oct - 16:53:25 10° W 17:00:25 26° NW 17:05:08 10° NNE daylight
25 Oct - 05:13:54 10° NNE 05:23:27 14° NE 05:32:54 10° ENE visible
25 Oct - 07:27:06 10° NNW 07:48:10 43° NE 08:05:13 10° E visible
25 Oct - 09:50:55 10° WNW 10:13:52 76° NNE 10:28:06 10° ESE visible
25 Oct - 12:19:39 10° W 12:38:50 87° S 12:48:53 10° E daylight
25 Oct - 14:48:19 10° WSW 15:01:28 69° NNW 15:08:25 10° ENE daylight
25 Oct - 17:15:54 10° W 17:20:49 17° NW 17:24:34 10° N daylight
26 Oct - 05:30:06 10° N 05:44:32 21° NE 05:58:39 10° E visible
26 Oct - 07:47:18 10° NW 08:09:30 52° NNE 08:26:53 10° ESE visible
26 Oct - 10:12:31 10° WNW 10:35:26 83° NNE 10:49:15 10° E daylight
26 Oct - 12:41:45 10° W 13:00:17 88° S 13:09:55 10° E daylight
26 Oct - 15:10:07 10° WSW 15:22:22 55° NNW 15:29:02 10° NE daylight
27 Oct - 05:48:19 10° N 06:05:34 28° NE 06:22:15 10° E visible
27 Oct - 08:07:55 10° NW 08:30:55 61° NNE 08:48:22 10° ESE visible
27 Oct - 10:34:20 10° WNW 10:57:03 88° NNE 11:10:23 10° E daylight
27 Oct - 13:03:48 10° W 13:21:40 87° NNW 13:30:55 10° ENE daylight
27 Oct - 15:32:00 10° WSW 15:43:05 42° NW 15:49:26 10° NNE daylight
28 Oct - 06:07:28 10° NNW 06:26:38 36° NE 06:44:54 10° E visible
28 Oct - 08:28:53 10° NW 08:52:24 70° NNE 09:09:43 10° ESE visible
28 Oct - 10:56:19 10° W 11:18:40 89° S 11:31:32 10° E daylight
28 Oct - 13:25:47 10° W 13:42:58 80° NNW 13:51:50 10° ENE daylight
28 Oct - 15:54:03 10° W 16:03:37 31° NW 16:09:31 10° NNE daylight
29 Oct - 04:14:34 10° NNE 04:23:45 14° NE 04:33:25 10° ENE visible
29 Oct - 06:27:13 10° NNW 06:47:46 45° NE 07:07:00 10° ESE visible
29 Oct - 08:50:09 10° WNW 09:14:00 77° NNE 09:31:00 10° ESE visible
29 Oct - 11:18:23 10° W 11:40:19 88° S 11:52:39 10° E daylight
29 Oct - 13:47:43 10° WSW 14:04:06 70° NNW 14:12:38 10° ENE daylight
29 Oct - 16:16:33 10° W 16:23:57 21° NW 16:29:05 10° N daylight
30 Oct - 04:30:56 10° N 04:44:34 21° NE 04:59:16 10° E visible
30 Oct - 06:47:26 10° NW 07:08:59 54° NE 07:28:47 10° ESE visible
30 Oct - 09:11:40 10° WNW 09:35:39 84° NNE 09:52:16 10° E visible
30 Oct - 11:40:29 10° W 12:01:55 89° S 12:13:45 10° E daylight
30 Oct - 14:09:39 10° WSW 14:25:04 58° NNW 14:33:16 10° NE daylight
30 Oct - 16:40:08 10° WNW 16:44:12 13° NW 16:47:31 10° NNW daylight
31 Oct - 04:49:14 10° N 05:05:22 29° NE 05:22:59 10° E visible
31 Oct - 07:08:01 10° NW 07:30:20 63° NNE 07:50:22 10° ESE visible
31 Oct - 09:33:24 10° WNW 09:57:24 89° N 10:13:30 10° E visible
31 Oct - 12:02:33 10° W 12:23:27 87° NNW 12:34:48 10° ENE daylight
31 Oct - 14:31:39 10° WSW 14:45:48 46° NW 14:53:41 10° NNE daylight
01 Nov - 05:08:26 10° NNW 05:26:13 37° NE 05:45:44 10° E visible
01 Nov - 07:28:55 10° NW 07:51:50 71° NNE 08:11:50 10° ESE visible
01 Nov - 09:55:18 10° W 10:19:12 89° S 10:34:45 10° E daylight
01 Nov - 12:24:35 10° WSW 12:44:50 80° NNW 12:55:46 10° ENE daylight
01 Nov - 14:53:48 10° WSW 15:06:20 35° NW 15:13:46 10° NNE daylight
